GFSGBSN_prec_precacc_270.txt.gz
Total_Precipitation_Accumulation
1.29 1.29 1.21 1.03 0.78 0.51 0.39 0.30 0.25 0.19 0.16 0.12 0.10 0.08 0.07 0.07 0.08 0.06 0.05 0.03 0.04 0.04 0.04 0.05 0.05 0.05 0.04 0.02 0.00 0.00 0.00 0.00 0.00 0.00 0.00 0.00 0.00 0.00 0.00 0.00 0.00 0.00 0.00 0.00 0.01 0.01 0.01
1.05 1.03 1.30 1.55 1.70 1.62 1.42 1.16 0.92 0.74 0.63 0.48 0.37 0.27 0.21 0.15 0.11 0.09 0.09 0.06 0.05 0.05 0.05 0.07 0.08 0.10 0.08 0.03 0.00 0.00 0.00 0.00 0.00 0.00 0.00 0.00 0.00 0.00 0.00 0.00 0.00 0.00 0.00 0.00 0.02 0.00 0.00
1.36 1.30 1.11 1.00 1.17 1.38 1.54 1.56 1.50 1.33 1.17 1.06 0.98 0.87 0.69 0.55 0.37 0.23 0.16 0.10 0.08 0.12 0.14 0.16 0.17 0.14 0.10 0.01 0.00 0.00 0.00 0.00 0.00 0.00 0.00 0.00 0.00 0.00 0.00 0.00 0.00 0.00 0.00 0.00 0.00 0.01 0.01
1.45 1.47 1.53 1.50 1.25 1.13 1.16 1.31 1.32 1.34 1.36 1.26 1.25 1.12 0.95 0.75 0.63 0.48 0.30 0.20 0.17 0.13 0.17 0.30 0.37 0.25 0.13 0.00 0.00 0.00 0.00 0.00 0.00 0.00 0.00 0.00 0.00 0.00 0.00 0.00 0.00 0.00 0.00 0.00 0.00 0.01 0.02
1.19 1.22 1.35 1.47 1.52 1.45 1.41 1.40 1.47 1.42 1.29 1.29 1.33 1.37 1.20 1.02 0.76 0.53 0.43 0.33 0.24 0.26 0.33 0.35 0.45 0.36 0.09 0.00 0.00 0.00 0.00 0.02 0.00 0.00 0.00 0.00 0.00 0.00 0.00 0.00 0.01 0.00 0.00 0.00 0.00 0.00 0.01
1.36 1.21 1.11 1.08 1.11 1.15 1.16 1.22 1.35 1.42 1.46 1.34 1.36 1.41 1.43 1.35 1.21 1.01 0.79 0.60 0.48 0.52 0.60 0.68 0.58 0.29 0.04 0.00 0.00 0.00 0.00 0.02 0.01 0.00 0.00 0.00 0.00 0.01 0.00 0.01 0.01 0.00 0.00 0.00 0.02 0.07 0.00
1.99 1.84 1.60 1.44 1.27 1.06 0.98 1.03 1.10 1.14 1.25 1.28 1.20 1.22 1.25 1.31 1.37 1.45 1.28 1.22 1.09 0.94 0.72 0.36 0.21 0.08 0.00 0.00 0.00 0.00 0.00 0.00 0.00 0.00 0.02 0.00 0.02 0.01 0.00 0.00 0.00 0.01 0.01 0.00 0.00 0.00 0.00
2.01 1.92 1.85 1.79 1.68 1.59 1.47 1.32 1.12 1.02 1.00 1.16 1.40 1.40 1.21 1.19 1.36 1.58 1.46 1.31 0.92 0.70 0.59 0.09 0.02 0.01 0.01 0.00 0.00 0.00 0.01 0.04 0.03 0.03 0.03 0.04 0.03 0.00 0.00 0.00 0.00 0.02 0.03 0.01 0.01 0.01 0.02
1.88 1.91 1.80 1.72 1.70 1.61 1.56 1.52 1.40 1.09 0.88 0.96 1.19 1.56 1.73 1.61 1.75 1.94 1.81 1.30 0.65 0.61 0.96 0.25 0.06 0.03 0.02 0.01 0.03 0.03 0.00 0.02 0.07 0.06 0.06 0.05 0.02 0.00 0.02 0.01 0.01 0.01 0.05 0.03 0.03 0.02 0.00
1.81 1.73 1.72 1.75 1.84 1.83 1.74 1.65 1.37 1.11 1.07 1.16 1.24 1.60 1.95 2.50 3.20 2.16 1.95 0.99 0.84 1.36 1.56 0.57 0.08 0.04 0.03 0.03 0.06 0.00 0.00 0.01 0.08 0.08 0.15 0.20 0.03 0.03 0.03 0.01 0.07 0.06 0.00 0.02 0.02 0.12 0.08
1.84 1.83 1.78 1.70 1.69 1.68 1.67 1.72 1.70 1.51 1.29 1.25 1.36 1.71 2.12 2.58 2.22 2.15 1.42 0.70 1.53 2.29 3.60 0.80 0.04 0.00 0.05 0.03 0.02 0.02 0.00 0.02 0.05 0.15 0.46 0.25 0.03 0.05 0.06 0.03 0.07 0.05 0.00 0.02 0.04 0.12 0.26
1.79 1.77 1.88 1.89 1.69 1.54 1.53 1.59 1.57 1.54 1.55 1.51 1.49 1.69 2.36 2.57 2.31 1.26 0.71 1.40 3.18 5.44 4.78 0.67 0.02 0.01 0.02 0.01 0.01 0.01 0.04 0.03 0.03 0.20 0.25 0.06 0.02 0.13 0.18 0.01 0.02 0.04 0.07 0.10 0.15 0.32 0.75
2.31 1.88 1.77 1.81 1.82 1.87 1.66 1.49 1.41 1.55 1.67 1.72 1.83 1.95 2.28 1.93 2.31 1.48 1.74 3.41 6.09 6.43 2.48 0.40 0.04 0.02 0.01 0.01 0.00 0.03 0.11 0.09 0.14 0.28 0.26 0.09 0.11 0.07 0.15 0.15 0.05 0.10 0.32 0.74 0.80 0.77 0.60
2.28 2.24 2.10 1.89 1.76 1.77 1.77 1.71 1.55 1.51 1.66 1.91 2.23 2.54 2.50 2.10 1.71 2.18 3.81 5.91 7.12 3.62 1.18 0.18 0.05 0.07 0.09 0.04 0.02 0.03 0.15 0.15 0.08 0.10 0.31 0.40 0.36 0.14 0.25 0.36 0.17 0.11 0.46 0.82 0.79 0.35 0.16
2.29 2.23 2.11 1.91 1.65 1.58 1.64 1.79 1.81 1.92 2.01 2.22 2.94 3.31 3.43 2.91 2.72 3.49 5.88 8.96 5.59 1.77 0.34 0.08 0.10 0.23 0.30 0.26 0.16 0.17 0.32 0.37 0.28 0.31 0.86 0.89 0.59 0.25 0.19 0.17 0.25 0.56 0.74 0.30 1.14 0.84 1.02
2.84 2.40 2.23 2.06 1.85 1.70 1.67 1.63 1.95 2.17 2.35 2.61 2.79 3.34 3.28 2.85 3.54 5.13 7.59 6.98 3.16 0.81 0.14 0.11 0.35 0.26 0.27 0.25 0.41 0.47 0.52 0.62 0.45 0.42 0.89 1.33 1.44 0.27 0.21 0.37 0.31 0.59 0.60 1.54 2.83 2.79 1.74
3.50 2.80 2.42 2.33 2.21 1.72 1.63 1.62 1.83 2.18 2.27 2.93 3.46 4.42 3.13 2.72 5.16 8.04 8.70 4.95 2.16 0.64 0.33 0.45 0.35 0.48 0.31 0.31 0.56 0.70 0.77 0.64 0.83 0.36 0.60 1.03 1.71 0.87 0.45 0.65 0.63 0.78 1.39 2.68 3.22 2.35 1.98
3.36 3.49 3.02 2.64 2.72 2.31 1.77 1.87 2.08 2.34 2.89 4.01 4.63 4.82 3.14 3.44 6.39 7.31 5.55 2.87 1.37 0.56 0.58 0.88 0.66 0.38 0.44 0.43 0.51 0.67 0.84 0.89 0.82 0.59 0.57 0.89 1.72 1.29 0.53 0.27 0.31 0.89 1.70 2.84 4.96 4.19 3.28
3.28 3.32 3.59 3.26 3.20 3.39 2.66 2.30 2.54 2.82 3.23 4.07 5.58 4.18 4.13 4.69 5.61 4.25 2.84 2.15 1.36 0.66 0.62 1.29 1.07 0.66 0.56 0.49 1.07 0.61 0.63 0.77 0.95 0.90 0.80 0.94 1.75 1.72 1.12 0.92 0.71 1.37 1.68 2.07 2.99 3.75 3.68
2.88 3.09 2.95 3.48 3.38 3.93 3.67 3.07 2.80 3.04 3.97 4.74 6.47 5.90 6.25 6.23 3.96 2.46 1.90 1.63 1.32 0.72 0.49 0.75 0.97 0.55 0.78 1.11 1.06 1.05 0.60 0.76 0.96 0.80 0.63 1.46 1.13 1.42 1.18 1.00 1.10 1.17 1.00 1.51 2.52 3.04 2.22
2.17 2.59 2.99 3.02 3.63 4.02 4.36 4.11 3.89 4.05 4.71 7.60 8.51 4.64 2.95 3.85 2.75 2.02 1.80 1.79 1.04 1.01 1.02 0.75 0.93 0.65 0.75 1.33 1.20 0.85 0.63 0.99 1.19 0.93 0.84 1.68 1.50 1.25 0.92 0.40 0.48 0.78 0.79 0.81 1.49 1.30 1.68
1.88 1.95 2.51 3.17 3.67 3.60 4.13 4.54 4.47 4.77 6.35 10.13 8.48 2.95 1.55 1.08 0.99 1.67 1.65 1.65 0.90 0.82 1.43 1.21 1.18 0.77 0.77 0.92 0.84 0.95 0.98 0.89 1.15 0.85 1.19 1.89 2.04 1.49 1.52 0.54 0.73 0.97 0.90 0.59 0.82 0.69 0.68
1.74 1.69 2.14 2.72 3.05 3.17 3.73 4.38 4.51 4.77 7.64 12.40 6.85 1.73 2.06 1.63 0.88 1.36 1.57 1.22 0.99 1.24 1.13 0.67 0.88 0.94 0.96 0.96 0.78 0.58 0.69 0.83 0.78 0.86 1.22 1.99 2.72 2.42 2.18 0.69 0.99 1.70 0.88 0.62 0.53 0.30 0.26
1.91 1.81 1.84 2.31 2.49 2.98 3.54 3.87 4.48 5.21 6.27 6.94 4.21 2.01 2.73 2.61 1.18 0.99 0.58 0.59 0.74 0.87 1.85 0.96 0.83 0.94 0.83 0.65 0.85 1.05 1.13 1.13 1.12 1.14 1.31 1.95 2.04 2.76 2.51 1.28 2.36 1.63 0.46 0.44 0.52 0.40 0.19
2.18 2.04 2.07 2.30 2.53 2.72 3.27 3.42 4.10 5.07 5.65 5.33 3.96 2.78 3.34 2.72 1.11 0.85 0.58 0.62 0.59 0.87 1.16 1.37 1.09 0.95 0.75 0.85 1.80 2.45 2.38 2.14 1.54 1.27 1.47 1.66 1.72 2.67 2.45 1.75 1.37 0.43 0.32 0.40 0.87 0.79 0.41
2.28 2.15 2.16 2.22 2.43 2.64 3.02 3.22 3.20 4.23 5.43 5.61 4.74 3.46 3.90 4.00 1.49 0.63 0.64 0.43 0.70 1.12 1.29 1.10 1.23 1.29 1.41 1.83 2.64 2.77 1.99 1.58 1.18 1.02 0.75 1.07 1.68 2.68 2.63 2.13 1.26 0.29 0.13 0.28 0.61 1.50 1.02
2.08 2.09 1.90 2.02 2.26 2.35 2.68 2.96 2.90 3.44 4.61 5.88 5.60 3.34 5.10 5.07 1.32 0.71 1.05 0.83 0.58 0.80 1.18 0.98 1.18 1.50 1.55 2.78 3.44 2.49 1.51 0.70 0.83 0.75 0.96 1.46 2.44 2.89 2.22 2.09 0.67 0.11 0.09 0.22 1.43 1.60 1.11
2.04 2.13 1.86 1.91 2.00 2.07 2.39 2.64 2.67 2.86 3.96 5.14 5.98 2.96 4.81 5.43 2.04 0.91 0.87 0.75 0.57 0.72 1.34 1.20 1.89 1.82 2.25 2.36 2.10 2.01 1.78 1.29 1.00 0.65 0.59 1.08 2.04 2.23 2.16 2.55 1.13 0.33 0.48 1.02 1.37 1.24 1.18
2.03 2.23 1.94 1.89 1.84 1.94 2.07 2.31 2.65 2.88 3.61 4.58 5.58 3.28 3.94 6.14 3.64 1.01 1.03 0.68 0.45 0.52 0.96 1.36 1.56 1.45 1.73 2.17 1.78 1.69 1.51 1.33 1.19 1.26 0.64 0.84 1.09 1.57 1.71 1.41 0.74 0.40 0.52 0.98 1.01 1.07 1.06

GFSGBSN_prec_precacc_276.txt.gz
Total_Precipitation_Accumulation
1.29 1.29 1.21 1.03 0.78 0.51 0.39 0.30 0.25 0.19 0.16 0.12 0.10 0.08 0.07 0.07 0.08 0.06 0.05 0.03 0.04 0.04 0.04 0.05 0.05 0.05 0.04 0.02 0.00 0.00 0.00 0.00 0.00 0.00 0.00 0.00 0.00 0.00 0.00 0.00 0.00 0.00 0.00 0.00 0.01 0.01 0.01
1.05 1.03 1.30 1.55 1.70 1.63 1.43 1.17 0.92 0.74 0.63 0.48 0.37 0.27 0.21 0.15 0.11 0.09 0.09 0.06 0.05 0.05 0.05 0.07 0.08 0.10 0.08 0.03 0.00 0.00 0.00 0.00 0.00 0.00 0.00 0.00 0.00 0.00 0.00 0.00 0.00 0.00 0.00 0.00 0.02 0.00 0.00
1.37 1.31 1.11 1.00 1.17 1.39 1.55 1.56 1.50 1.33 1.17 1.06 0.98 0.87 0.69 0.55 0.37 0.23 0.16 0.10 0.08 0.12 0.14 0.16 0.17 0.14 0.10 0.01 0.00 0.00 0.00 0.00 0.00 0.00 0.00 0.00 0.00 0.00 0.00 0.00 0.00 0.00 0.00 0.00 0.00 0.01 0.01
1.46 1.48 1.54 1.50 1.26 1.14 1.17 1.31 1.32 1.34 1.36 1.26 1.25 1.12 0.95 0.75 0.63 0.48 0.30 0.20 0.17 0.13 0.17 0.30 0.37 0.25 0.13 0.00 0.00 0.00 0.00 0.00 0.00 0.00 0.00 0.00 0.00 0.00 0.00 0.00 0.00 0.00 0.00 0.00 0.00 0.01 0.02
1.19 1.24 1.37 1.48 1.52 1.46 1.42 1.41 1.47 1.42 1.29 1.29 1.33 1.37 1.20 1.02 0.76 0.53 0.43 0.33 0.24 0.26 0.33 0.35 0.45 0.36 0.09 0.00 0.00 0.00 0.00 0.02 0.00 0.00 0.00 0.00 0.00 0.00 0.00 0.00 0.01 0.00 0.00 0.00 0.00 0.00 0.01
1.38 1.22 1.13 1.09 1.12 1.15 1.17 1.24 1.36 1.43 1.46 1.34 1.36 1.41 1.43 1.35 1.21 1.01 0.79 0.60 0.48 0.52 0.60 0.68 0.58 0.29 0.04 0.00 0.00 0.00 0.00 0.02 0.01 0.00 0.00 0.00 0.00 0.01 0.00 0.01 0.01 0.00 0.00 0.00 0.02 0.07 0.00
2.03 1.87 1.62 1.46 1.28 1.09 0.99 1.04 1.10 1.15 1.25 1.28 1.20 1.22 1.25 1.31 1.37 1.45 1.28 1.22 1.09 0.94 0.72 0.36 0.21 0.08 0.00 0.00 0.00 0.00 0.00 0.00 0.00 0.00 0.02 0.00 0.02 0.01 0.00 0.00 0.00 0.01 0.01 0.00 0.00 0.00 0.00
2.04 1.95 1.89 1.82 1.69 1.60 1.48 1.33 1.12 1.03 1.00 1.16 1.40 1.40 1.21 1.19 1.36 1.58 1.46 1.31 0.92 0.70 0.59 0.09 0.02 0.01 0.01 0.00 0.00 0.00 0.01 0.04 0.03 0.03 0.03 0.04 0.03 0.00 0.00 0.00 0.00 0.02 0.03 0.01 0.01 0.01 0.02
1.89 1.93 1.84 1.76 1.73 1.64 1.58 1.54 1.41 1.09 0.88 0.96 1.19 1.56 1.73 1.61 1.75 1.94 1.81 1.30 0.65 0.61 0.96 0.25 0.06 0.03 0.02 0.01 0.03 0.03 0.00 0.02 0.07 0.06 0.06 0.05 0.02 0.00 0.02 0.01 0.01 0.01 0.05 0.03 0.03 0.02 0.00
1.81 1.73 1.73 1.78 1.87 1.85 1.77 1.67 1.37 1.12 1.07 1.16 1.24 1.60 1.95 2.50 3.20 2.16 1.95 0.99 0.84 1.36 1.56 0.57 0.08 0.04 0.03 0.03 0.06 0.00 0.00 0.01 0.08 0.08 0.15 0.20 0.03 0.03 0.03 0.01 0.07 0.06 0.00 0.02 0.02 0.12 0.08
1.84 1.83 1.78 1.71 1.70 1.69 1.67 1.72 1.70 1.51 1.29 1.25 1.36 1.71 2.12 2.58 2.22 2.15 1.42 0.70 1.53 2.29 3.60 0.80 0.04 0.00 0.05 0.03 0.02 0.02 0.00 0.02 0.05 0.15 0.46 0.25 0.03 0.05 0.06 0.03 0.07 0.05 0.00 0.02 0.04 0.12 0.26
1.79 1.78 1.88 1.90 1.70 1.55 1.54 1.59 1.58 1.54 1.55 1.51 1.49 1.69 2.36 2.57 2.31 1.26 0.71 1.40 3.18 5.44 4.78 0.67 0.02 0.01 0.02 0.01 0.01 0.01 0.04 0.03 0.03 0.20 0.25 0.06 0.02 0.13 0.18 0.01 0.02 0.04 0.07 0.10 0.15 0.32 0.75
2.32 1.89 1.78 1.82 1.83 1.89 1.68 1.52 1.43 1.56 1.67 1.72 1.83 1.95 2.28 1.93 2.31 1.48 1.74 3.41 6.09 6.43 2.48 0.40 0.04 0.02 0.01 0.01 0.00 0.03 0.11 0.09 0.14 0.28 0.26 0.09 0.11 0.07 0.15 0.15 0.05 0.10 0.32 0.74 0.80 0.77 0.60
2.29 2.25 2.11 1.91 1.78 1.79 1.80 1.73 1.57 1.52 1.66 1.92 2.23 2.54 2.50 2.10 1.71 2.18 3.81 5.91 7.12 3.62 1.18 0.18 0.05 0.07 0.09 0.04 0.02 0.03 0.15 0.15 0.08 0.10 0.31 0.40 0.36 0.14 0.25 0.36 0.17 0.11 0.46 0.82 0.79 0.35 0.16
2.30 2.25 2.13 1.94 1.68 1.60 1.67 1.83 1.84 1.93 2.02 2.22 2.94 3.31 3.43 2.91 2.72 3.49 5.88 8.96 5.59 1.77 0.34 0.08 0.10 0.23 0.30 0.26 0.16 0.17 0.32 0.37 0.28 0.31 0.86 0.89 0.59 0.25 0.19 0.17 0.25 0.56 0.74 0.30 1.14 0.84 1.02
2.86 2.41 2.24 2.08 1.86 1.71 1.69 1.65 1.97 2.19 2.38 2.64 2.79 3.34 3.28 2.85 3.54 5.13 7.59 6.98 3.16 0.81 0.14 0.11 0.35 0.26 0.27 0.25 0.41 0.47 0.52 0.62 0.45 0.42 0.89 1.33 1.44 0.27 0.21 0.37 0.31 0.59 0.60 1.54 2.83 2.79 1.74
3.53 2.82 2.43 2.34 2.22 1.73 1.64 1.63 1.84 2.19 2.30 3.00 3.47 4.42 3.13 2.72 5.16 8.04 8.70 4.95 2.16 0.64 0.33 0.45 0.35 0.48 0.31 0.31 0.56 0.70 0.77 0.64 0.83 0.36 0.60 1.03 1.71 0.87 0.45 0.65 0.63 0.78 1.39 2.68 3.22 2.35 1.98
3.39 3.52 3.05 2.65 2.72 2.32 1.78 1.89 2.09 2.35 2.93 4.09 4.65 4.82 3.14 3.44 6.39 7.31 5.55 2.87 1.37 0.56 0.58 0.88 0.66 0.38 0.44 0.43 0.51 0.67 0.84 0.89 0.82 0.59 0.57 0.89 1.72 1.29 0.53 0.27 0.31 0.89 1.70 2.84 4.96 4.19 3.28
3.30 3.35 3.62 3.28 3.21 3.40 2.67 2.32 2.56 2.85 3.34 4.24 5.65 4.18 4.13 4.69 5.61 4.25 2.84 2.15 1.36 0.66 0.62 1.29 1.07 0.66 0.56 0.49 1.07 0.61 0.63 0.77 0.95 0.90 0.80 0.94 1.75 1.72 1.12 0.92 0.71 1.37 1.68 2.07 2.99 3.75 3.68
2.90 3.13 2.98 3.50 3.39 3.94 3.67 3.08 2.83 3.08 4.12 4.97 6.56 5.90 6.25 6.25 3.97 2.46 1.90 1.63 1.32 0.72 0.49 0.75 0.97 0.55 0.78 1.11 1.06 1.05 0.60 0.76 0.96 0.80 0.63 1.46 1.13 1.42 1.18 1.00 1.10 1.17 1.00 1.51 2.52 3.04 2.22
2.19 2.62 3.07 3.09 3.65 4.03 4.36 4.12 3.90 4.09 4.86 7.90 8.70 4.67 2.95 3.89 2.80 2.02 1.80 1.79 1.04 1.01 1.02 0.75 0.93 0.65 0.75 1.33 1.20 0.85 0.63 0.99 1.19 0.93 0.84 1.68 1.50 1.25 0.92 0.40 0.48 0.78 0.79 0.81 1.49 1.30 1.68
1.93 1.98 2.56 3.27 3.72 3.61 4.14 4.54 4.48 4.82 6.47 10.34 8.73 3.06 1.57 1.08 0.99 1.67 1.65 1.65 0.90 0.82 1.43 1.21 1.18 0.77 0.77 0.92 0.84 0.95 0.98 0.89 1.15 0.85 1.19 1.89 2.04 1.49 1.52 0.54 0.73 0.97 0.90 0.59 0.82 0.69 0.68
1.78 1.73 2.15 2.77 3.13 3.21 3.75 4.39 4.51 4.82 7.74 12.54 6.98 1.89 2.18 1.66 0.88 1.37 1.58 1.22 0.99 1.24 1.13 0.67 0.88 0.94 0.96 0.96 0.78 0.58 0.69 0.83 0.78 0.86 1.22 1.99 2.72 2.42 2.18 0.69 0.99 1.70 0.88 0.62 0.53 0.30 0.26
1.96 1.85 1.87 2.32 2.52 3.04 3.58 3.88 4.48 5.23 6.36 7.03 4.30 2.16 2.94 2.70 1.20 0.99 0.58 0.59 0.74 0.87 1.85 0.96 0.83 0.94 0.83 0.65 0.85 1.05 1.13 1.13 1.12 1.14 1.31 1.95 2.04 2.76 2.51 1.28 2.36 1.63 0.46 0.44 0.52 0.40 0.19
2.23 2.11 2.14 2.36 2.58 2.78 3.34 3.47 4.11 5.08 5.71 5.41 4.00 2.86 3.48 2.82 1.18 0.87 0.58 0.62 0.59 0.87 1.16 1.37 1.09 0.95 0.75 0.85 1.80 2.45 2.38 2.14 1.54 1.27 1.47 1.66 1.72 2.67 2.45 1.75 1.37 0.43 0.32 0.40 0.87 0.79 0.41
2.33 2.22 2.23 2.31 2.53 2.76 3.15 3.35 3.28 4.25 5.45 5.68 4.82 3.54 4.06 4.09 1.51 0.66 0.67 0.43 0.70 1.12 1.29 1.10 1.23 1.29 1.41 1.83 2.64 2.77 1.99 1.58 1.18 1.02 0.75 1.07 1.68 2.68 2.63 2.13 1.26 0.29 0.13 0.28 0.61 1.50 1.02
2.14 2.13 1.94 2.06 2.29 2.41 2.76 3.09 2.99 3.50 4.64 5.93 5.63 3.40 5.27 5.22 1.32 0.73 1.10 0.87 0.58 0.80 1.18 0.98 1.18 1.50 1.55 2.78 3.44 2.49 1.51 0.70 0.83 0.75 0.96 1.46 2.44 2.89 2.22 2.09 0.67 0.11 0.09 0.22 1.43 1.60 1.11
2.10 2.19 1.89 1.93 2.02 2.09 2.42 2.70 2.79 2.96 4.03 5.20 5.99 2.97 4.87 5.55 2.05 0.91 0.88 0.79 0.59 0.72 1.34 1.20 1.89 1.82 2.25 2.36 2.10 2.01 1.78 1.29 1.00 0.65 0.59 1.08 2.04 2.23 2.16 2.55 1.13 0.33 0.48 1.02 1.37 1.24 1.18
2.07 2.28 1.98 1.91 1.86 1.96 2.09 2.36 2.74 3.02 3.74 4.68 5.59 3.29 3.96 6.22 3.68 1.01 1.03 0.68 0.45 0.52 0.97 1.36 1.56 1.45 1.73 2.17 1.78 1.69 1.51 1.33 1.19 1.26 0.64 0.84 1.09 1.57 1.71 1.41 0.74 0.40 0.52 0.98 1.01 1.07 1.06

GFSGBSN_prec_precacc_279.txt.gz
Total_Precipitation_Accumulation
1.29 1.29 1.21 1.03 0.78 0.51 0.39 0.31 0.25 0.19 0.16 0.12 0.10 0.08 0.07 0.07 0.08 0.06 0.05 0.03 0.04 0.04 0.04 0.05 0.05 0.05 0.04 0.02 0.00 0.00 0.00 0.00 0.00 0.00 0.00 0.00 0.00 0.00 0.00 0.00 0.00 0.00 0.00 0.00 0.01 0.01 0.01
1.05 1.04 1.30 1.55 1.70 1.63 1.43 1.17 0.92 0.74 0.63 0.48 0.37 0.27 0.21 0.15 0.11 0.09 0.09 0.06 0.05 0.05 0.05 0.07 0.08 0.10 0.08 0.03 0.00 0.00 0.00 0.00 0.00 0.00 0.00 0.00 0.00 0.00 0.00 0.00 0.00 0.00 0.00 0.00 0.02 0.00 0.00
1.37 1.32 1.11 1.00 1.17 1.39 1.56 1.56 1.50 1.33 1.17 1.06 0.98 0.87 0.69 0.55 0.37 0.23 0.16 0.10 0.08 0.12 0.14 0.16 0.17 0.14 0.10 0.01 0.00 0.00 0.00 0.00 0.00 0.00 0.00 0.00 0.00 0.00 0.00 0.00 0.00 0.00 0.00 0.00 0.00 0.01 0.01
1.46 1.48 1.54 1.51 1.26 1.14 1.17 1.32 1.32 1.34 1.37 1.26 1.25 1.12 0.95 0.75 0.63 0.48 0.30 0.20 0.17 0.13 0.17 0.30 0.37 0.25 0.13 0.00 0.00 0.00 0.00 0.00 0.00 0.00 0.00 0.00 0.00 0.00 0.00 0.00 0.00 0.00 0.00 0.00 0.00 0.01 0.02
1.23 1.25 1.37 1.49 1.52 1.46 1.43 1.41 1.48 1.43 1.30 1.29 1.33 1.37 1.20 1.02 0.76 0.53 0.43 0.33 0.24 0.26 0.33 0.35 0.45 0.36 0.09 0.00 0.00 0.00 0.00 0.02 0.00 0.00 0.00 0.00 0.00 0.00 0.00 0.00 0.01 0.00 0.00 0.00 0.00 0.00 0.01
1.41 1.26 1.17 1.10 1.12 1.16 1.18 1.24 1.36 1.43 1.46 1.34 1.36 1.41 1.43 1.35 1.21 1.01 0.79 0.60 0.48 0.52 0.60 0.68 0.58 0.29 0.04 0.00 0.00 0.00 0.00 0.02 0.01 0.00 0.00 0.00 0.00 0.01 0.00 0.01 0.01 0.00 0.00 0.00 0.02 0.07 0.00
2.04 1.88 1.65 1.50 1.30 1.09 1.00 1.04 1.11 1.15 1.25 1.28 1.20 1.22 1.25 1.31 1.37 1.45 1.28 1.22 1.09 0.94 0.72 0.36 0.21 0.08 0.00 0.00 0.00 0.00 0.00 0.00 0.00 0.00 0.02 0.00 0.02 0.01 0.00 0.00 0.00 0.01 0.01 0.00 0.00 0.00 0.00
2.05 1.95 1.90 1.85 1.74 1.64 1.50 1.36 1.14 1.04 1.00 1.16 1.40 1.40 1.21 1.19 1.36 1.58 1.46 1.31 0.92 0.70 0.59 0.09 0.02 0.01 0.01 0.00 0.00 0.00 0.01 0.04 0.03 0.03 0.03 0.04 0.03 0.00 0.00 0.00 0.00 0.02 0.03 0.01 0.01 0.01 0.02
1.90 1.93 1.84 1.77 1.76 1.67 1.61 1.56 1.43 1.10 0.88 0.96 1.19 1.56 1.73 1.61 1.75 1.94 1.81 1.30 0.65 0.61 0.96 0.25 0.06 0.03 0.02 0.01 0.03 0.03 0.00 0.02 0.07 0.06 0.06 0.05 0.02 0.00 0.02 0.01 0.01 0.01 0.05 0.03 0.03 0.02 0.00
1.82 1.74 1.73 1.78 1.87 1.85 1.77 1.68 1.39 1.13 1.08 1.16 1.24 1.60 1.95 2.50 3.20 2.16 1.95 0.99 0.84 1.36 1.56 0.57 0.08 0.04 0.03 0.03 0.06 0.00 0.00 0.01 0.08 0.08 0.15 0.20 0.03 0.03 0.03 0.01 0.07 0.06 0.00 0.02 0.02 0.12 0.08
1.84 1.84 1.78 1.71 1.70 1.69 1.67 1.72 1.70 1.51 1.29 1.25 1.36 1.71 2.12 2.58 2.22 2.15 1.42 0.70 1.53 2.29 3.60 0.80 0.04 0.00 0.05 0.03 0.02 0.02 0.00 0.02 0.05 0.15 0.46 0.25 0.03 0.05 0.06 0.03 0.07 0.05 0.00 0.02 0.04 0.12 0.26
1.79 1.78 1.88 1.91 1.71 1.55 1.54 1.59 1.58 1.56 1.57 1.52 1.49 1.69 2.36 2.57 2.31 1.26 0.71 1.40 3.18 5.44 4.78 0.67 0.02 0.01 0.02 0.01 0.01 0.01 0.04 0.03 0.03 0.20 0.25 0.06 0.02 0.13 0.18 0.01 0.02 0.04 0.07 0.10 0.15 0.32 0.75
2.33 1.89 1.78 1.82 1.85 1.91 1.69 1.53 1.45 1.58 1.70 1.73 1.84 1.95 2.28 1.93 2.31 1.48 1.74 3.41 6.09 6.43 2.48 0.40 0.04 0.02 0.01 0.01 0.00 0.03 0.11 0.09 0.14 0.28 0.26 0.09 0.11 0.07 0.15 0.15 0.05 0.10 0.32 0.74 0.80 0.77 0.60
2.30 2.26 2.12 1.91 1.79 1.80 1.81 1.74 1.58 1.53 1.67 1.93 2.24 2.54 2.50 2.10 1.71 2.18 3.81 5.91 7.12 3.62 1.18 0.18 0.05 0.07 0.09 0.04 0.02 0.03 0.15 0.15 0.08 0.10 0.31 0.40 0.36 0.14 0.25 0.36 0.17 0.11 0.46 0.82 0.79 0.35 0.16
2.31 2.26 2.14 1.94 1.68 1.60 1.67 1.84 1.86 1.94 2.03 2.23 2.94 3.31 3.43 2.91 2.72 3.49 5.88 8.96 5.59 1.77 0.34 0.08 0.10 0.23 0.30 0.26 0.16 0.17 0.32 0.37 0.28 0.31 0.86 0.89 0.59 0.25 0.19 0.17 0.25 0.56 0.74 0.30 1.14 0.84 1.02
2.86 2.42 2.25 2.09 1.87 1.71 1.69 1.65 1.98 2.19 2.38 2.65 2.81 3.35 3.28 2.85 3.54 5.13 7.59 6.98 3.16 0.81 0.14 0.11 0.35 0.26 0.27 0.25 0.41 0.47 0.52 0.62 0.45 0.42 0.89 1.33 1.44 0.27 0.21 0.37 0.31 0.59 0.60 1.54 2.83 2.79 1.74
3.53 2.83 2.44 2.35 2.22 1.73 1.64 1.63 1.84 2.19 2.31 3.01 3.51 4.43 3.13 2.72 5.16 8.04 8.70 4.95 2.16 0.64 0.33 0.45 0.35 0.48 0.31 0.31 0.56 0.70 0.77 0.64 0.83 0.36 0.60 1.03 1.71 0.87 0.45 0.65 0.63 0.78 1.39 2.68 3.22 2.35 1.98
3.40 3.52 3.05 2.66 2.74 2.33 1.79 1.89 2.10 2.36 2.94 4.11 4.68 4.82 3.14 3.44 6.39 7.31 5.55 2.87 1.37 0.56 0.58 0.88 0.66 0.38 0.44 0.43 0.51 0.67 0.84 0.89 0.82 0.59 0.57 0.89 1.72 1.29 0.53 0.27 0.31 0.89 1.70 2.84 4.96 4.19 3.28
3.31 3.35 3.63 3.29 3.23 3.43 2.69 2.33 2.57 2.87 3.35 4.28 5.71 4.19 4.13 4.69 5.61 4.25 2.84 2.15 1.36 0.66 0.62 1.29 1.07 0.66 0.56 0.49 1.07 0.61 0.63 0.77 0.95 0.90 0.80 0.94 1.75 1.72 1.12 0.92 0.71 1.37 1.68 2.07 2.99 3.75 3.68
2.91 3.13 2.98 3.51 3.40 3.96 3.68 3.09 2.83 3.09 4.14 5.04 6.62 5.92 6.26 6.26 3.97 2.46 1.90 1.63 1.32 0.72 0.49 0.75 0.97 0.55 0.78 1.11 1.06 1.05 0.60 0.76 0.96 0.80 0.63 1.46 1.13 1.42 1.18 1.00 1.10 1.17 1.00 1.51 2.52 3.04 2.22
2.20 2.63 3.09 3.11 3.69 4.05 4.39 4.12 3.90 4.10 4.89 7.96 8.76 4.72 2.95 3.91 2.81 2.02 1.80 1.79 1.04 1.01 1.02 0.75 0.93 0.65 0.75 1.33 1.20 0.85 0.63 0.99 1.19 0.93 0.84 1.68 1.50 1.25 0.92 0.40 0.48 0.78 0.79 0.81 1.49 1.30 1.68
1.94 2.00 2.57 3.28 3.75 3.63 4.15 4.56 4.48 4.82 6.51 10.39 8.77 3.12 1.62 1.09 0.99 1.67 1.66 1.65 0.90 0.82 1.43 1.21 1.18 0.77 0.77 0.92 0.84 0.95 0.98 0.89 1.15 0.85 1.19 1.89 2.04 1.49 1.52 0.54 0.73 0.97 0.90 0.59 0.82 0.69 0.68
1.79 1.74 2.15 2.78 3.15 3.25 3.80 4.43 4.52 4.82 7.76 12.61 7.00 1.93 2.25 1.70 0.89 1.37 1.58 1.22 0.99 1.24 1.13 0.68 0.88 0.94 0.96 0.96 0.78 0.58 0.69 0.83 0.78 0.86 1.22 1.99 2.72 2.42 2.18 0.69 0.99 1.70 0.88 0.62 0.53 0.30 0.26
1.97 1.86 1.89 2.34 2.52 3.05 3.63 3.93 4.51 5.23 6.37 7.04 4.34 2.19 2.98 2.72 1.26 1.01 0.58 0.59 0.74 0.87 1.85 0.96 0.83 0.94 0.83 0.65 0.85 1.05 1.13 1.13 1.12 1.14 1.31 1.95 2.04 2.76 2.51 1.28 2.36 1.63 0.46 0.44 0.52 0.40 0.19
2.24 2.12 2.18 2.40 2.61 2.81 3.37 3.52 4.17 5.11 5.72 5.41 4.01 2.87 3.51 2.84 1.19 0.89 0.59 0.62 0.59 0.87 1.16 1.37 1.09 0.95 0.75 0.85 1.80 2.45 2.38 2.14 1.54 1.27 1.47 1.66 1.72 2.67 2.45 1.75 1.37 0.43 0.32 0.40 0.87 0.79 0.41
2.34 2.24 2.28 2.37 2.58 2.78 3.18 3.39 3.34 4.30 5.50 5.69 4.83 3.55 4.08 4.13 1.51 0.66 0.68 0.43 0.70 1.12 1.29 1.10 1.23 1.29 1.41 1.83 2.64 2.77 1.99 1.58 1.18 1.02 0.75 1.07 1.68 2.68 2.63 2.13 1.26 0.29 0.13 0.28 0.61 1.50 1.02
2.16 2.16 1.97 2.09 2.32 2.45 2.81 3.12 3.03 3.53 4.69 5.98 5.63 3.40 5.28 5.25 1.33 0.73 1.11 0.89 0.61 0.81 1.18 0.98 1.18 1.50 1.55 2.78 3.44 2.49 1.51 0.70 0.83 0.75 0.96 1.46 2.44 2.89 2.22 2.09 0.67 0.11 0.09 0.22 1.43 1.60 1.11
2.11 2.20 1.92 1.97 2.06 2.11 2.44 2.72 2.84 3.01 4.06 5.33 6.04 2.97 4.88 5.55 2.05 0.91 0.88 0.79 0.61 0.76 1.36 1.20 1.89 1.82 2.25 2.36 2.10 2.01 1.78 1.29 1.00 0.65 0.59 1.08 2.04 2.23 2.16 2.55 1.13 0.33 0.48 1.02 1.37 1.24 1.18
2.08 2.29 2.00 1.95 1.90 1.99 2.11 2.37 2.76 3.08 3.80 4.78 5.68 3.29 3.96 6.22 3.68 1.01 1.03 0.68 0.45 0.53 0.99 1.38 1.56 1.45 1.73 2.17 1.78 1.69 1.51 1.33 1.19 1.26 0.64 0.84 1.09 1.57 1.71 1.41 0.74 0.40 0.52 0.98 1.01 1.07 1.06

GFSGBSN_prec_precacc_285.txt.gz
Total_Precipitation_Accumulation
1.29 1.30 1.21 1.03 0.78 0.51 0.39 0.32 0.25 0.19 0.16 0.12 0.10 0.08 0.07 0.07 0.08 0.06 0.05 0.03 0.04 0.04 0.04 0.05 0.05 0.05 0.04 0.02 0.00 0.00 0.00 0.00 0.00 0.00 0.00 0.00 0.00 0.00 0.00 0.00 0.00 0.00 0.00 0.00 0.01 0.01 0.01
1.05 1.04 1.31 1.56 1.70 1.63 1.43 1.18 0.92 0.74 0.63 0.49 0.37 0.27 0.21 0.15 0.11 0.09 0.09 0.06 0.05 0.05 0.05 0.07 0.08 0.10 0.08 0.03 0.00 0.00 0.00 0.00 0.00 0.00 0.00 0.00 0.00 0.00 0.00 0.00 0.00 0.00 0.00 0.00 0.02 0.00 0.00
1.41 1.33 1.12 1.02 1.17 1.40 1.56 1.56 1.50 1.33 1.18 1.06 0.98 0.87 0.69 0.55 0.37 0.23 0.16 0.10 0.08 0.12 0.14 0.16 0.17 0.14 0.10 0.01 0.00 0.00 0.00 0.00 0.00 0.00 0.00 0.00 0.00 0.00 0.00 0.00 0.00 0.00 0.00 0.00 0.00 0.01 0.01
1.52 1.53 1.58 1.53 1.27 1.14 1.17 1.32 1.33 1.35 1.37 1.27 1.25 1.12 0.95 0.75 0.63 0.48 0.30 0.20 0.17 0.13 0.17 0.30 0.37 0.25 0.13 0.00 0.00 0.00 0.00 0.00 0.00 0.00 0.00 0.00 0.00 0.00 0.00 0.00 0.00 0.00 0.00 0.00 0.00 0.01 0.02
1.25 1.30 1.41 1.52 1.54 1.48 1.44 1.42 1.49 1.44 1.30 1.29 1.33 1.37 1.20 1.02 0.76 0.53 0.43 0.33 0.24 0.26 0.33 0.35 0.45 0.36 0.09 0.00 0.00 0.00 0.00 0.02 0.00 0.00 0.00 0.00 0.00 0.00 0.00 0.00 0.01 0.00 0.00 0.00 0.00 0.00 0.01
1.41 1.27 1.18 1.13 1.16 1.20 1.21 1.26 1.38 1.44 1.46 1.34 1.36 1.41 1.43 1.35 1.21 1.01 0.79 0.60 0.48 0.52 0.60 0.68 0.58 0.29 0.04 0.00 0.00 0.00 0.00 0.02 0.01 0.00 0.00 0.00 0.00 0.01 0.00 0.01 0.01 0.00 0.00 0.00 0.02 0.07 0.00
2.05 1.88 1.65 1.51 1.34 1.14 1.05 1.08 1.14 1.17 1.26 1.28 1.20 1.22 1.25 1.31 1.37 1.45 1.28 1.22 1.09 0.94 0.72 0.36 0.21 0.08 0.00 0.00 0.00 0.00 0.00 0.00 0.00 0.00 0.02 0.00 0.02 0.01 0.00 0.00 0.00 0.01 0.01 0.00 0.00 0.00 0.00
2.06 1.96 1.90 1.85 1.74 1.67 1.54 1.39 1.17 1.06 1.01 1.16 1.40 1.40 1.21 1.19 1.36 1.58 1.46 1.31 0.92 0.70 0.59 0.09 0.02 0.01 0.01 0.00 0.00 0.00 0.01 0.04 0.03 0.03 0.03 0.04 0.03 0.00 0.00 0.00 0.00 0.02 0.03 0.01 0.01 0.01 0.02
1.91 1.94 1.84 1.77 1.76 1.68 1.62 1.57 1.44 1.12 0.90 0.96 1.19 1.56 1.73 1.61 1.75 1.94 1.81 1.30 0.65 0.61 0.96 0.25 0.06 0.03 0.02 0.01 0.03 0.03 0.00 0.02 0.07 0.06 0.06 0.05 0.02 0.00 0.02 0.01 0.01 0.01 0.05 0.03 0.03 0.02 0.00
1.82 1.74 1.74 1.78 1.87 1.85 1.78 1.68 1.39 1.13 1.09 1.16 1.24 1.60 1.95 2.50 3.20 2.16 1.95 0.99 0.84 1.36 1.56 0.57 0.08 0.04 0.03 0.03 0.06 0.00 0.00 0.01 0.08 0.08 0.15 0.20 0.03 0.03 0.03 0.01 0.07 0.06 0.00 0.02 0.02 0.12 0.08
1.85 1.84 1.79 1.72 1.71 1.69 1.68 1.72 1.71 1.52 1.29 1.25 1.36 1.71 2.12 2.58 2.22 2.15 1.42 0.70 1.53 2.29 3.60 0.80 0.04 0.00 0.05 0.03 0.02 0.02 0.00 0.02 0.05 0.15 0.46 0.25 0.03 0.05 0.06 0.03 0.07 0.05 0.00 0.02 0.04 0.12 0.26
1.80 1.78 1.89 1.91 1.72 1.56 1.56 1.61 1.59 1.56 1.57 1.53 1.50 1.69 2.36 2.57 2.31 1.26 0.71 1.40 3.18 5.44 4.78 0.67 0.02 0.01 0.02 0.01 0.01 0.01 0.04 0.03 0.03 0.20 0.25 0.06 0.02 0.13 0.18 0.01 0.02 0.04 0.07 0.10 0.15 0.32 0.75
2.33 1.90 1.79 1.83 1.85 1.92 1.70 1.54 1.45 1.60 1.71 1.75 1.85 1.95 2.28 1.93 2.31 1.48 1.74 3.41 6.09 6.43 2.48 0.40 0.04 0.02 0.01 0.01 0.00 0.03 0.11 0.09 0.14 0.28 0.26 0.09 0.11 0.07 0.15 0.15 0.05 0.10 0.32 0.74 0.80 0.77 0.60
2.30 2.27 2.12 1.93 1.79 1.81 1.81 1.74 1.59 1.54 1.68 1.94 2.24 2.54 2.50 2.10 1.71 2.18 3.81 5.91 7.12 3.62 1.18 0.18 0.05 0.07 0.09 0.04 0.02 0.03 0.15 0.15 0.08 0.10 0.31 0.40 0.36 0.14 0.25 0.36 0.17 0.11 0.46 0.82 0.79 0.35 0.16
2.32 2.26 2.15 1.95 1.68 1.60 1.68 1.84 1.86 1.95 2.04 2.23 2.94 3.31 3.43 2.92 2.72 3.49 5.88 8.96 5.59 1.77 0.34 0.08 0.10 0.23 0.30 0.26 0.16 0.17 0.32 0.37 0.28 0.31 0.86 0.89 0.59 0.25 0.19 0.17 0.25 0.56 0.74 0.30 1.14 0.84 1.02
2.87 2.43 2.26 2.10 1.88 1.72 1.70 1.65 1.98 2.20 2.38 2.65 2.82 3.35 3.28 2.86 3.54 5.13 7.60 6.99 3.16 0.81 0.14 0.11 0.35 0.26 0.27 0.25 0.41 0.47 0.52 0.62 0.45 0.42 0.89 1.33 1.44 0.27 0.21 0.37 0.31 0.59 0.60 1.54 2.83 2.79 1.74
3.54 2.84 2.45 2.36 2.24 1.75 1.66 1.64 1.85 2.19 2.31 3.01 3.53 4.46 3.14 2.72 5.16 8.04 8.72 4.95 2.16 0.64 0.33 0.45 0.35 0.48 0.31 0.31 0.56 0.70 0.77 0.64 0.83 0.36 0.60 1.03 1.71 0.87 0.45 0.65 0.63 0.78 1.39 2.68 3.22 2.35 1.98
3.41 3.54 3.06 2.67 2.75 2.34 1.82 1.91 2.11 2.36 2.94 4.13 4.75 4.86 3.15 3.44 6.39 7.31 5.56 2.87 1.37 0.56 0.58 0.88 0.66 0.38 0.44 0.43 0.51 0.67 0.84 0.89 0.82 0.59 0.57 0.89 1.72 1.29 0.53 0.27 0.31 0.89 1.70 2.84 4.96 4.19 3.28
3.32 3.37 3.64 3.30 3.24 3.44 2.71 2.36 2.58 2.87 3.36 4.32 5.82 4.23 4.16 4.69 5.62 4.26 2.84 2.15 1.36 0.66 0.62 1.29 1.07 0.66 0.56 0.49 1.07 0.61 0.63 0.77 0.95 0.90 0.80 0.94 1.75 1.72 1.12 0.92 0.71 1.37 1.68 2.07 2.99 3.75 3.68
2.93 3.15 3.00 3.52 3.41 3.98 3.72 3.14 2.87 3.10 4.15 5.07 6.71 5.97 6.29 6.31 3.98 2.47 1.90 1.63 1.32 0.72 0.49 0.75 0.97 0.55 0.78 1.11 1.06 1.05 0.60 0.76 0.96 0.80 0.63 1.46 1.13 1.42 1.18 1.00 1.10 1.17 1.00 1.51 2.52 3.04 2.22
2.21 2.64 3.10 3.12 3.71 4.08 4.40 4.18 3.95 4.11 4.90 8.00 8.82 4.78 3.01 3.96 2.84 2.03 1.80 1.79 1.04 1.01 1.02 0.75 0.93 0.65 0.75 1.33 1.20 0.85 0.63 0.99 1.19 0.93 0.84 1.68 1.50 1.25 0.92 0.40 0.48 0.78 0.79 0.81 1.49 1.30 1.68
1.96 2.01 2.58 3.28 3.75 3.65 4.18 4.61 4.55 4.84 6.53 10.45 8.84 3.19 1.70 1.12 1.02 1.70 1.67 1.66 0.90 0.82 1.43 1.21 1.18 0.77 0.77 0.92 0.84 0.95 0.98 0.89 1.15 0.85 1.19 1.89 2.04 1.49 1.52 0.54 0.73 0.97 0.90 0.59 0.82 0.69 0.68
1.80 1.75 2.16 2.78 3.15 3.26 3.85 4.51 4.61 4.86 7.78 12.65 7.03 1.98 2.29 1.73 0.94 1.40 1.62 1.24 1.00 1.24 1.13 0.68 0.88 0.94 0.96 0.96 0.78 0.58 0.69 0.83 0.78 0.86 1.22 1.99 2.72 2.42 2.18 0.69 0.99 1.70 0.88 0.62 0.53 0.30 0.26
1.99 1.88 1.90 2.35 2.53 3.07 3.67 4.03 4.58 5.27 6.41 7.09 4.37 2.24 3.06 2.76 1.31 1.10 0.61 0.61 0.75 0.87 1.85 0.96 0.83 0.94 0.83 0.65 0.85 1.05 1.13 1.13 1.12 1.14 1.31 1.95 2.04 2.76 2.51 1.28 2.36 1.63 0.46 0.44 0.52 0.40 0.19
2.26 2.12 2.18 2.41 2.65 2.86 3.42 3.60 4.25 5.16 5.80 5.49 4.05 2.89 3.57 2.89 1.21 0.92 0.62 0.64 0.62 0.89 1.18 1.37 1.09 0.95 0.75 0.85 1.80 2.45 2.38 2.14 1.54 1.27 1.47 1.66 1.72 2.67 2.45 1.75 1.37 0.43 0.32 0.40 0.87 0.79 0.41
2.36 2.25 2.28 2.39 2.61 2.81 3.21 3.45 3.42 4.34 5.58 5.81 4.89 3.57 4.12 4.18 1.53 0.67 0.68 0.45 0.74 1.19 1.34 1.11 1.23 1.29 1.41 1.83 2.64 2.77 1.99 1.58 1.18 1.02 0.75 1.07 1.68 2.68 2.63 2.13 1.26 0.29 0.13 0.28 0.61 1.50 1.02
2.17 2.16 1.97 2.09 2.34 2.49 2.86 3.17 3.07 3.57 4.74 6.18 5.80 3.44 5.30 5.28 1.33 0.74 1.11 0.93 0.66 0.86 1.26 1.03 1.21 1.51 1.56 2.79 3.45 2.49 1.51 0.70 0.83 0.75 0.96 1.46 2.44 2.90 2.22 2.09 0.67 0.11 0.09 0.22 1.43 1.60 1.11
2.12 2.21 1.92 1.97 2.07 2.13 2.47 2.78 2.92 3.07 4.11 5.54 6.23 3.07 4.91 5.58 2.06 0.91 0.88 0.80 0.62 0.80 1.45 1.30 1.95 1.86 2.29 2.38 2.11 2.01 1.78 1.29 1.00 0.65 0.59 1.08 2.04 2.23 2.16 2.55 1.13 0.33 0.48 1.02 1.37 1.24 1.18
2.10 2.31 2.01 1.95 1.92 2.01 2.13 2.40 2.84 3.19 3.87 4.92 5.83 3.45 4.07 6.28 3.69 1.02 1.03 0.68 0.46 0.55 1.01 1.43 1.62 1.52 1.81 2.21 1.79 1.69 1.51 1.33 1.19 1.26 0.64 0.84 1.09 1.57 1.71 1.41 0.74 0.40 0.52 0.98 1.01 1.07 1.06

GFSGBSN_prec_precacc_291.txt.gz
Total_Precipitation_Accumulation
1.30 1.31 1.22 1.05 0.79 0.51 0.39 0.32 0.25 0.19 0.17 0.12 0.10 0.08 0.07 0.07 0.08 0.06 0.05 0.03 0.04 0.04 0.04 0.05 0.05 0.05 0.04 0.02 0.00 0.00 0.00 0.00 0.00 0.00 0.00 0.00 0.00 0.00 0.00 0.00 0.00 0.00 0.00 0.00 0.01 0.01 0.01
1.08 1.06 1.32 1.58 1.71 1.64 1.44 1.19 0.92 0.75 0.63 0.49 0.37 0.27 0.21 0.15 0.11 0.09 0.09 0.06 0.05 0.05 0.05 0.07 0.08 0.10 0.08 0.03 0.00 0.00 0.00 0.00 0.00 0.00 0.00 0.00 0.00 0.00 0.00 0.00 0.00 0.00 0.00 0.00 0.02 0.00 0.00
1.42 1.34 1.14 1.04 1.19 1.41 1.57 1.58 1.51 1.34 1.18 1.06 0.98 0.87 0.69 0.55 0.37 0.23 0.16 0.10 0.08 0.12 0.14 0.16 0.17 0.14 0.10 0.01 0.00 0.00 0.00 0.00 0.00 0.00 0.00 0.00 0.00 0.00 0.00 0.00 0.00 0.00 0.00 0.00 0.00 0.01 0.01
1.53 1.54 1.58 1.54 1.27 1.16 1.19 1.34 1.34 1.36 1.38 1.27 1.25 1.12 0.95 0.75 0.63 0.48 0.30 0.20 0.17 0.13 0.17 0.30 0.37 0.25 0.13 0.00 0.00 0.00 0.00 0.00 0.00 0.00 0.00 0.00 0.00 0.00 0.00 0.00 0.00 0.00 0.00 0.00 0.00 0.01 0.02
1.26 1.31 1.42 1.53 1.54 1.49 1.46 1.44 1.51 1.44 1.30 1.29 1.33 1.37 1.20 1.02 0.76 0.53 0.43 0.33 0.24 0.26 0.33 0.35 0.45 0.36 0.09 0.00 0.00 0.00 0.00 0.02 0.00 0.00 0.00 0.00 0.00 0.00 0.00 0.00 0.01 0.00 0.00 0.00 0.00 0.00 0.01
1.42 1.27 1.19 1.14 1.16 1.20 1.22 1.28 1.40 1.45 1.47 1.35 1.36 1.41 1.43 1.35 1.21 1.01 0.79 0.60 0.48 0.52 0.60 0.68 0.58 0.29 0.04 0.00 0.00 0.00 0.00 0.02 0.01 0.00 0.00 0.00 0.00 0.01 0.00 0.01 0.01 0.00 0.00 0.00 0.02 0.07 0.00
2.05 1.89 1.66 1.51 1.34 1.14 1.05 1.09 1.15 1.17 1.26 1.28 1.20 1.22 1.25 1.31 1.37 1.45 1.28 1.22 1.09 0.94 0.72 0.36 0.21 0.08 0.00 0.00 0.00 0.00 0.00 0.00 0.00 0.00 0.02 0.00 0.02 0.01 0.00 0.00 0.00 0.01 0.01 0.00 0.00 0.00 0.00
2.06 1.96 1.90 1.85 1.75 1.67 1.54 1.39 1.17 1.06 1.02 1.17 1.40 1.40 1.21 1.19 1.36 1.58 1.46 1.31 0.92 0.70 0.59 0.09 0.02 0.01 0.01 0.00 0.00 0.00 0.01 0.04 0.03 0.03 0.03 0.04 0.03 0.00 0.00 0.00 0.00 0.02 0.03 0.01 0.01 0.01 0.02
1.91 1.94 1.84 1.77 1.76 1.69 1.63 1.58 1.45 1.13 0.90 0.97 1.20 1.56 1.73 1.61 1.75 1.94 1.81 1.30 0.65 0.61 0.96 0.25 0.06 0.03 0.02 0.01 0.03 0.03 0.00 0.02 0.07 0.06 0.06 0.05 0.02 0.00 0.02 0.01 0.01 0.01 0.05 0.03 0.03 0.02 0.00
1.82 1.74 1.74 1.79 1.88 1.86 1.78 1.69 1.40 1.14 1.09 1.17 1.25 1.60 1.95 2.50 3.20 2.16 1.95 0.99 0.84 1.36 1.56 0.57 0.08 0.04 0.03 0.03 0.06 0.00 0.00 0.01 0.08 0.08 0.15 0.20 0.03 0.03 0.03 0.01 0.07 0.06 0.00 0.02 0.02 0.12 0.08
1.86 1.84 1.79 1.72 1.71 1.70 1.68 1.73 1.72 1.52 1.30 1.26 1.36 1.71 2.12 2.58 2.22 2.15 1.42 0.70 1.53 2.29 3.60 0.80 0.04 0.00 0.05 0.03 0.02 0.02 0.00 0.02 0.05 0.15 0.46 0.25 0.03 0.05 0.06 0.03 0.07 0.05 0.00 0.02 0.04 0.12 0.26
1.81 1.79 1.89 1.91 1.72 1.57 1.56 1.62 1.60 1.56 1.57 1.54 1.50 1.69 2.36 2.57 2.31 1.26 0.71 1.40 3.18 5.44 4.78 0.67 0.02 0.01 0.02 0.01 0.01 0.01 0.04 0.03 0.03 0.20 0.25 0.06 0.02 0.13 0.18 0.01 0.02 0.04 0.07 0.10 0.15 0.32 0.76
2.35 1.91 1.80 1.84 1.86 1.92 1.71 1.55 1.46 1.60 1.71 1.75 1.85 1.95 2.28 1.93 2.31 1.48 1.74 3.41 6.09 6.43 2.48 0.40 0.04 0.02 0.01 0.01 0.00 0.03 0.11 0.09 0.14 0.28 0.26 0.09 0.11 0.07 0.15 0.15 0.05 0.10 0.32 0.74 0.80 0.77 0.60
2.32 2.28 2.13 1.93 1.80 1.81 1.82 1.75 1.59 1.55 1.68 1.94 2.24 2.54 2.50 2.10 1.71 2.18 3.81 5.92 7.12 3.62 1.18 0.18 0.05 0.07 0.09 0.04 0.02 0.03 0.15 0.15 0.08 0.10 0.31 0.40 0.36 0.14 0.25 0.36 0.17 0.11 0.46 0.82 0.79 0.35 0.16
2.33 2.28 2.16 1.96 1.70 1.61 1.68 1.85 1.87 1.95 2.04 2.23 2.94 3.31 3.44 2.92 2.73 3.50 5.89 8.98 5.59 1.77 0.34 0.08 0.10 0.23 0.30 0.26 0.16 0.17 0.32 0.37 0.28 0.31 0.86 0.89 0.59 0.25 0.19 0.17 0.25 0.56 0.74 0.30 1.14 0.84 1.02
2.88 2.44 2.27 2.11 1.89 1.73 1.70 1.66 1.99 2.20 2.38 2.65 2.82 3.36 3.29 2.86 3.57 5.15 7.61 7.00 3.16 0.81 0.14 0.11 0.35 0.26 0.27 0.25 0.41 0.47 0.52 0.62 0.45 0.42 0.89 1.33 1.44 0.27 0.21 0.37 0.31 0.59 0.60 1.54 2.83 2.79 1.74
3.55 2.85 2.47 2.37 2.24 1.75 1.66 1.65 1.86 2.19 2.31 3.01 3.54 4.47 3.17 2.74 5.21 8.08 8.73 4.96 2.16 0.64 0.33 0.45 0.35 0.48 0.31 0.31 0.56 0.70 0.77 0.64 0.83 0.36 0.60 1.03 1.71 0.87 0.45 0.65 0.63 0.78 1.39 2.68 3.22 2.35 1.98
3.42 3.55 3.07 2.67 2.75 2.35 1.82 1.92 2.12 2.37 2.94 4.14 4.78 4.89 3.21 3.49 6.43 7.33 5.57 2.87 1.37 0.56 0.58 0.88 0.66 0.38 0.44 0.43 0.51 0.67 0.84 0.89 0.82 0.59 0.57 0.89 1.72 1.29 0.53 0.27 0.31 0.89 1.70 2.84 4.96 4.19 3.28
3.34 3.38 3.65 3.31 3.25 3.44 2.72 2.36 2.59 2.87 3.37 4.32 5.85 4.25 4.20 4.77 5.69 4.29 2.85 2.15 1.36 0.66 0.62 1.29 1.07 0.66 0.56 0.49 1.07 0.61 0.63 0.77 0.95 0.90 0.80 0.94 1.75 1.72 1.12 0.92 0.71 1.37 1.68 2.07 2.99 3.75 3.68
2.94 3.16 3.00 3.54 3.42 3.98 3.72 3.15 2.89 3.11 4.15 5.08 6.75 6.00 6.31 6.39 4.01 2.50 1.97 1.64 1.32 0.72 0.49 0.75 0.97 0.55 0.78 1.11 1.06 1.05 0.60 0.76 0.96 0.80 0.63 1.46 1.13 1.42 1.18 1.00 1.10 1.17 1.00 1.51 2.52 3.04 2.22
2.22 2.65 3.10 3.12 3.72 4.08 4.40 4.19 3.98 4.12 4.91 8.02 8.88 4.81 3.08 3.99 2.88 2.05 1.83 1.84 1.05 1.01 1.02 0.75 0.93 0.65 0.75 1.33 1.20 0.85 0.63 0.99 1.19 0.93 0.84 1.68 1.50 1.25 0.92 0.40 0.48 0.78 0.79 0.81 1.49 1.30 1.68
1.97 2.02 2.58 3.29 3.76 3.66 4.19 4.61 4.58 4.86 6.54 10.49 8.90 3.23 1.73 1.13 1.04 1.73 1.68 1.66 0.90 0.82 1.43 1.21 1.18 0.77 0.77 0.92 0.84 0.95 0.98 0.89 1.15 0.85 1.19 1.89 2.04 1.49 1.52 0.54 0.73 0.97 0.90 0.59 0.82 0.69 0.68
1.81 1.76 2.16 2.78 3.16 3.27 3.86 4.51 4.63 4.86 7.80 12.73 7.12 2.04 2.34 1.74 0.95 1.43 1.67 1.30 1.01 1.24 1.13 0.68 0.88 0.94 0.96 0.96 0.78 0.58 0.69 0.83 0.78 0.86 1.22 1.99 2.72 2.42 2.18 0.69 0.99 1.70 0.88 0.62 0.53 0.30 0.26
2.00 1.89 1.90 2.35 2.54 3.08 3.68 4.04 4.61 5.28 6.43 7.18 4.47 2.38 3.21 2.80 1.32 1.12 0.65 0.64 0.80 0.88 1.86 0.96 0.83 0.94 0.83 0.65 0.85 1.05 1.13 1.13 1.12 1.14 1.31 1.95 2.04 2.77 2.51 1.28 2.36 1.63 0.46 0.44 0.52 0.40 0.19
2.27 2.13 2.18 2.41 2.65 2.87 3.43 3.62 4.28 5.17 5.81 5.56 4.13 3.03 3.70 2.95 1.22 0.93 0.64 0.66 0.63 0.90 1.18 1.37 1.09 0.95 0.75 0.85 1.80 2.46 2.38 2.14 1.54 1.27 1.47 1.66 1.72 2.67 2.45 1.75 1.37 0.43 0.32 0.40 0.87 0.79 0.41
2.37 2.25 2.29 2.39 2.62 2.82 3.22 3.46 3.44 4.35 5.59 5.86 4.95 3.68 4.30 4.32 1.55 0.69 0.70 0.46 0.76 1.22 1.38 1.13 1.23 1.29 1.41 1.83 2.65 2.79 1.99 1.58 1.18 1.02 0.75 1.07 1.68 2.68 2.63 2.13 1.26 0.29 0.13 0.28 0.61 1.50 1.02
2.17 2.17 1.98 2.10 2.34 2.49 2.86 3.18 3.09 3.58 4.77 6.25 5.88 3.57 5.47 5.42 1.34 0.75 1.13 0.96 0.72 0.91 1.32 1.12 1.26 1.55 1.59 2.80 3.47 2.50 1.52 0.70 0.83 0.75 0.96 1.46 2.44 2.91 2.22 2.09 0.67 0.11 0.09 0.22 1.43 1.60 1.11
2.14 2.23 1.94 1.98 2.08 2.13 2.47 2.78 2.93 3.08 4.14 5.59 6.26 3.15 5.15 5.77 2.08 0.91 0.88 0.81 0.63 0.83 1.53 1.48 2.10 2.00 2.47 2.45 2.12 2.02 1.78 1.29 1.00 0.65 0.59 1.08 2.04 2.23 2.17 2.55 1.13 0.33 0.48 1.02 1.37 1.24 1.18
2.12 2.33 2.03 1.97 1.93 2.02 2.13 2.40 2.84 3.20 3.91 4.98 5.87 3.48 4.20 6.55 3.75 1.04 1.03 0.68 0.46 0.56 1.04 1.47 1.93 1.83 2.09 2.44 1.85 1.71 1.52 1.33 1.20 1.27 0.64 0.84 1.09 1.57 1.71 1.41 0.74 0.40 0.52 0.98 1.01 1.07 1.06